Weather History for Cedar Rapids, IA

Change the Weather History Date:

Friday, October 7, 2011

  Actual Average Record
Temperature  
Mean Temperature 72 °F 54 °F  
Max Temperature 83 °F 66 °F 89 °F (1916)
Min Temperature 61 °F 42 °F 23 °F (2000)
Degree Days  
Heating Degree Days 0 12  
Month to date heating degree days 40 75  
Since 1 July heating degree days 244 232  
Cooling Degree Days 7 1  
Month to date cooling degree days 11 7  
Year to date cooling degree days 878 747  
Growing Degree Days 21 (Base 50)    
Moisture  
Dew Point 49 °F    
Average Humidity 48    
Maximum Humidity 72    
Minimum Humidity 24    
Precipitation  
Precipitation 0.00 in 0.08 in 1.47 in (1967)
Month to date precipitation 0.00 0.66  
Year to date precipitation 22.97 29.12  
Sea Level Pressure  
Sea Level Pressure 30.11 in    
Wind  
Wind Speed 13 mph (SSE)    
Max Wind Speed 24 mph    
Max Gust Speed 36 mph    
Visibility 10 miles    
Events      
T = Trace of Precipitation, MM = Missing Value Source: NWS Daily Summary

Daily Weather History Graph

Daily Weather History Graph

Search for Another Location

Airport:

Trip Planner

Search our weather history database for the weather conditions in past years. The results will help you decide how hot, cold, wet, or windy it might be!

Date:

Astronomy

Oct. 07, 2011 Rise Set
Actual Time 7:09 AM CDT 6:38 PM CDT
Civil Twilight 6:42 AM CDT 7:06 PM CDT
Nautical Twilight 6:09 AM CDT 7:38 PM CDT
Astronomical Twilight 5:37 AM CDT 8:11 PM CDT
Moon 4:24 PM CDT (10/7) 2:55 AM CDT (10/7)
Length of Visible Light 12h 24m
Length of Day
11h 28m
Waxing Gibbous, 83% of the Moon is Illuminated
Oct 7
Waxing Gibbous
Oct 11
Full
Oct 19
Last Quarter
Oct 26
New
Nov 2
First Quarter

Hourly Weather History & Observations

Time (CDT) Temp. Dew Point Humidity Pressure Visibility Wind Dir Wind Speed Gust Speed Precip Events Conditions
12:52 AM 64.0 °F 50.0 °F 60% 30.09 in 10.0 mi SSE 9.2 mph - N/A   Clear
1:52 AM 63.0 °F 50.0 °F 63% 30.09 in 10.0 mi SSE 9.2 mph - N/A   Clear
2:52 AM 62.1 °F 51.1 °F 67% 30.11 in 10.0 mi SSE 9.2 mph - N/A   Clear
3:52 AM 62.1 °F 51.1 °F 67% 30.12 in 10.0 mi SSE 9.2 mph - N/A   Clear
4:52 AM 62.1 °F 51.1 °F 67% 30.13 in 10.0 mi SSE 9.2 mph - N/A   Clear
5:52 AM 61.0 °F 51.1 °F 70% 30.14 in 10.0 mi SSE 9.2 mph - N/A   Clear
6:52 AM 60.8 °F 51.8 °F 72% 30.15 in 10.0 mi SSE 10.4 mph - N/A   Clear
7:52 AM 62.1 °F 51.1 °F 67% 30.15 in 10.0 mi South 11.5 mph - N/A   Clear
8:52 AM 64.9 °F 52.0 °F 63% 30.16 in 10.0 mi SSE 12.7 mph 20.7 mph N/A   Clear
9:52 AM 71.1 °F 52.0 °F 51% 30.15 in 10.0 mi South 13.8 mph 25.3 mph N/A   Clear
10:52 AM 75.9 °F 51.1 °F 42% 30.14 in 10.0 mi South 19.6 mph 33.4 mph N/A   Clear
11:52 AM 78.8 °F 50.0 °F 36% 30.14 in 10.0 mi South 20.7 mph 29.9 mph N/A   Clear
12:52 PM 81.0 °F 50.0 °F 34% 30.11 in 10.0 mi South 19.6 mph 27.6 mph N/A   Clear
1:52 PM 82.0 °F 50.0 °F 33% 30.09 in 10.0 mi South 13.8 mph 27.6 mph N/A   Clear
2:52 PM 82.9 °F 48.9 °F 31% 30.07 in 10.0 mi South 19.6 mph 26.5 mph N/A   Clear
3:52 PM 82.9 °F 46.0 °F 27% 30.06 in 10.0 mi South 18.4 mph 27.6 mph N/A   Clear
4:52 PM 82.0 °F 43.0 °F 25% 30.06 in 10.0 mi South 16.1 mph 25.3 mph N/A   Clear
5:52 PM 80.1 °F 42.1 °F 26% 30.06 in 10.0 mi South 11.5 mph - N/A   Clear
6:52 PM 75.9 °F 43.0 °F 31% 30.07 in 10.0 mi SSE 11.5 mph - N/A   Clear
7:52 PM 73.0 °F 44.1 °F 35% 30.08 in 10.0 mi South 8.1 mph - N/A   Clear
8:52 PM 72.0 °F 45.0 °F 38% 30.09 in 10.0 mi SSE 11.5 mph 17.3 mph N/A   Clear
9:52 PM 70.0 °F 48.0 °F 46% 30.10 in 10.0 mi SSE 11.5 mph - N/A   Clear
10:52 PM 69.1 °F 48.9 °F 49% 30.11 in 10.0 mi SSE 10.4 mph 18.4 mph N/A   Clear
11:52 PM 66.9 °F 48.9 °F 52% 30.12 in 10.0 mi South 10.4 mph - N/A   Clear